This is the latest recevied weather packets stored in our database for station/object N4QD-13. If no packets are shown the sender has not sent any weather packets the latest 10 day(s).
| Time | Temp. | Humidity | Pressure | Rain* | Wind** | Luminosity | Snow |
|---|---|---|---|---|---|---|---|
| 1777305697 | 17.78° C | 63% | 1025.3 hPa | 0 mm | - | 714 W/m² | - |
| 1777305392 | 17.22° C | 64% | 1025.4 hPa | 0 mm | - | 708 W/m² | - |
| 1777305088 | 16.11° C | 69% | 1025.5 hPa | 0 mm | - | 700 W/m² | - |
| 1777304782 | 16.67° C | 66% | 1025.4 hPa | 0 mm | - | 697 W/m² | - |
| 1777304480 | 16.67° C | 69% | 1025.7 hPa | 0 mm | - | 698 W/m² | - |
| 1777304177 | 16.11° C | 68% | 1025.7 hPa | 0 mm | - | 694 W/m² | - |
| 1777303874 | 15.56° C | 69% | 1025.9 hPa | 0 mm | - | 681 W/m² | - |
| 1777303571 | 15.56° C | 72% | 1025.8 hPa | 0 mm | - | 669 W/m² | - |
| 1777303269 | 15.56° C | 70% | 1026.1 hPa | 0 mm | - | 666 W/m² | - |
| 1777302966 | 15° C | 75% | 1025.9 hPa | 0 mm | - | 667 W/m² | - |
| 1777302662 | 15.56° C | 71% | 1025.9 hPa | 0 mm | - | 661 W/m² | - |
| 1777302361 | 15° C | 74% | 1026.1 hPa | 0 mm | - | 659 W/m² | - |
| 1777302059 | 14.44° C | 75% | 1026.1 hPa | 0 mm | - | 645 W/m² | - |
| 1777301756 | 15.56° C | 73% | 1026.1 hPa | 0 mm | - | 629 W/m² | - |
| 1777301453 | 15° C | 73% | 1026 hPa | 0 mm | - | 619 W/m² | - |
| 1777301150 | 14.44° C | 75% | 1026.1 hPa | 0 mm | - | 607 W/m² | - |
| 1777300847 | 14.44° C | 75% | 1026.3 hPa | 0 mm | - | 594 W/m² | - |
| 1777300545 | 14.44° C | 75% | 1026.3 hPa | 0 mm | - | 582 W/m² | - |
| 1777300243 | 13.89° C | 76% | 1026.3 hPa | 0 mm | - | 574 W/m² | - |
| 1777299938 | 13.89° C | 77% | 1026.5 hPa | 0 mm | - | 575 W/m² | - |
| 1777299636 | 13.89° C | 76% | 1026.6 hPa | 0 mm | - | 555 W/m² | - |
| 1777299334 | 13.89° C | 77% | 1026.4 hPa | 0 mm | - | 542 W/m² | - |
| 1777299031 | 13.89° C | 77% | 1026.3 hPa | 0 mm | - | 533 W/m² | - |
| 1777298728 | 13.89° C | 79% | 1026.5 hPa | 0 mm | - | 524 W/m² | - |
| 1777298424 | 13.33° C | 79% | 1026.3 hPa | 0 mm | - | 515 W/m² | - |
* Rain latest hour (hover to see other rain measurements)
** Current wind speed in m/s (hover to see current wind gust speed)